Regional Weather Roundup
Issued by NWS

Home | Current Version | Previous Version | Text Only | Print | Product List | Glossary On
Versions: 1 2 3 4 5 6 7 8 9 10 11 12 13 14 15 16 17 18 19 20 21 22 23 24 25 26 27 28 29 30 31 32 33 34 35 36 37 38 39 40 41 42 43 44 45 46 47 48 49 50
000
ASUS44 KOUN 260910
RWROK

WEATHER ROUNDUP FOR OKLAHOMA
NATIONAL WEATHER SERVICE NORMAN OK
300 AM CST SUN FEB 26 2017

NOTE: "FAIR" INDICATES FEW OR NO CLOUDS BELOW 12,000 FEET WITH NO
      SIGNIFICANT WEATHER AND/OR OBSTRUCTIONS TO VISIBILITY.

OKZ001>007-009>012-014-015-017-261000-
NORTHWEST OKLAHOMA AND THE PANHANDLE

CITY           SKY/WX    TMP DP  RH WIND       PRES   REMARKS
GAGE           CLEAR     32  18  56 W10       29.88S WCI  24
GUYMON         PTCLDY    38  13  35 W9        29.82S WCI  31
ENID/WOODRING  MOCLDY    32  27  80 SE7       29.93S WCI  26
$$

OKZ016-021>023-033>039-044-045-261000-
SOUTHWEST OKLAHOMA

CITY           SKY/WX    TMP DP  RH WIND       PRES   REMARKS
LAWTON/FT SILL CLEAR     37  24  61 S12       29.92F WCI  29
FREDERICK      CLEAR     35  27  72 SE8       29.89F WCI  29
CLINTON        CLEAR     36  22  56 S18       29.89F WCI  26
HOBART         CLEAR     38  24  57 S16       29.92F WCI  29
ALTUS AFB      CLEAR     34  24  65 SE9       29.90F WCI  27
$$

OKZ018>020-024>031-261000-
CENTRAL OKLAHOMA

CITY           SKY/WX    TMP DP  RH WIND       PRES   REMARKS
OKLAHOMA CITY  PTCLDY    36  21  54 S12       29.95F WCI  28
OKC/WILEY POST PTCLDY    40  21  46 S16       29.95F WCI  31
OKC/TINKER AFB CLOUDY    40  21  47 SE7       29.94F WCI  35
STILLWATER     CLOUDY    38  18  44 SE10      29.96F WCI  31
GUTHRIE        PTCLDY    38  19  46 SE9       29.95F WCI  31
$$

OKZ008-013-054>072-261000-
NORTHEAST OKLAHOMA

CITY           SKY/WX    TMP DP  RH WIND       PRES   REMARKS
TULSA          MOCLDY    40  18  41 SE12      30.01F WCI  33
TULSA/JONES    CLEAR     32  19  58 S3        30.03F
PONCA CITY     MOCLDY    38  18  44 SE14      29.96F WCI  30
BARTLESVILLE   MOCLDY    29  22  75 CALM      30.03F
MUSKOGEE       CLEAR     31  24  75 S7        30.06F WCI  24
$$

OKZ032-040>043-046>053-073>077-261000-
SOUTH CENTRAL/SOUTHEAST OKLAHOMA

CITY           SKY/WX    TMP DP  RH WIND       PRES   REMARKS
ARDMORE/DWNTWN CLEAR     34  27  75 CALM      29.99F
MCALESTER      CLEAR     34  20  56 E6        30.03F WCI  29
$$




USA.gov is the U.S. government's official web portal to all federal, state and local government web resources and services.